Weather History for Washington, PA

Change the Weather History Date:

Friday, November 8, 2013

  Actual Average Record
Temperature  
Mean Temperature 34 °F -  
Max Temperature 44 °F 50 °F 68 °F (2000)
Min Temperature 24 °F 33 °F 17 °F (2012)
Degree Days  
Heating Degree Days 31    
Moisture  
Dew Point 26 °F    
Average Humidity 68    
Maximum Humidity 100    
Minimum Humidity 42    
Precipitation  
Precipitation 0.00 in - - ()
Sea Level Pressure  
Sea Level Pressure 30.23 in    
Wind  
Wind Speed 7 mph (West)    
Max Wind Speed 15 mph    
Max Gust Speed 21 mph    
Visibility 10 miles    
Events      
Averages and records for this station are not official NWS values.
T = Trace of Precipitation, MM = Missing Value Source: NWS Daily Summary

Daily Weather History Graph

Daily Weather History Graph

Search for Another Location

Airport:

Trip Planner

Search our weather history database for the weather conditions in past years. The results will help you decide how hot, cold, wet, or windy it might be!

Date:

Astronomy

Nov. 08, 2013 Rise Set
Actual Time 6:58 AM EST 5:10 PM EST
Civil Twilight 6:30 AM EST 5:39 PM EST
Nautical Twilight 5:57 AM EST 6:11 PM EST
Astronomical Twilight 5:25 AM EST 6:43 PM EST
Moon 11:53 AM EST (11/8) 10:29 PM EST (11/8)
Length of Visible Light 11h 09m
Length of Day
10h 11m
Waxing Crescent, 33% of the Moon is Illuminated
Nov 8
Waxing Crescent
Nov 10
First Quarter
Nov 17
Full
Nov 25
Last Quarter
Dec 2
New

Hourly Weather History & Observations

Time (EST) Temp. Windchill Dew Point Humidity Pressure Visibility Wind Dir Wind Speed Gust Speed Precip Events Conditions
12:15 AM 37.4 °F 30.8 °F 26.6 °F 65% 30.11 in 10.0 mi WSW 9.2 mph - N/A   Overcast
12:35 AM 37.4 °F 31.4 °F 26.6 °F 65% 30.12 in 10.0 mi SW 8.1 mph - N/A   Overcast
12:55 AM 37.4 °F 32.1 °F 26.6 °F 65% 30.11 in 10.0 mi SW 6.9 mph - N/A   Overcast
1:15 AM 37.4 °F 31.4 °F 26.6 °F 65% 30.11 in 10.0 mi WSW 8.1 mph - N/A   Overcast
1:35 AM 37.4 °F 32.8 °F 26.6 °F 65% 30.10 in 10.0 mi WSW 5.8 mph - N/A   Overcast
1:55 AM 37.4 °F 29.3 °F 28.4 °F 70% 30.11 in 10.0 mi West 12.7 mph 20.7 mph N/A   Mostly Cloudy
2:15 AM 37.4 °F 30.8 °F 30.2 °F 75% 30.11 in 10.0 mi WSW 9.2 mph - N/A   Overcast
2:35 AM 35.6 °F 30.7 °F 28.4 °F 75% 30.11 in 10.0 mi WSW 5.8 mph - N/A   Mostly Cloudy
2:55 AM 35.6 °F 28.0 °F 28.4 °F 75% 30.11 in 10.0 mi West 10.4 mph - N/A   Clear
3:15 AM 35.6 °F 28.6 °F 26.6 °F 70% 30.12 in 10.0 mi WSW 9.2 mph - N/A   Clear
3:35 AM 35.6 °F 28.6 °F 28.4 °F 75% 30.12 in 10.0 mi WSW 9.2 mph - N/A   Mostly Cloudy
3:55 AM 37.4 °F 30.3 °F 28.4 °F 70% 30.13 in 10.0 mi WSW 10.4 mph 16.1 mph N/A   Overcast
4:15 AM 37.4 °F 29.8 °F 28.4 °F 70% 30.14 in 10.0 mi West 11.5 mph 18.4 mph N/A   Overcast
4:35 AM 37.4 °F 30.8 °F 26.6 °F 65% 30.14 in 10.0 mi West 9.2 mph - N/A   Overcast
4:55 AM 37.4 °F 32.8 °F 26.6 °F 65% 30.15 in 10.0 mi West 5.8 mph - N/A   Mostly Cloudy
5:15 AM 35.6 °F 30.7 °F 26.6 °F 70% 30.15 in 10.0 mi West 5.8 mph - N/A   Partly Cloudy
5:35 AM 35.6 °F 30.7 °F 26.6 °F 70% 30.16 in 10.0 mi West 5.8 mph - N/A   Clear
5:55 AM 33.8 °F 29.6 °F 26.6 °F 75% 30.17 in 10.0 mi West 4.6 mph - N/A   Clear
6:15 AM 33.8 °F 28.6 °F 26.6 °F 75% 30.17 in 10.0 mi West 5.8 mph - N/A   Clear
6:35 AM 33.8 °F 29.6 °F 26.6 °F 75% 30.18 in 10.0 mi West 4.6 mph - N/A   Clear
6:55 AM 33.8 °F 29.6 °F 26.6 °F 75% 30.19 in 10.0 mi West 4.6 mph - N/A   Scattered Clouds
7:15 AM 32.0 °F 25.6 °F 26.6 °F 80% 30.20 in 10.0 mi WSW 6.9 mph - N/A   Partly Cloudy
7:35 AM 32.0 °F 25.6 °F 26.6 °F 80% 30.21 in 10.0 mi WSW 6.9 mph - N/A   Partly Cloudy
7:55 AM 33.8 °F 27.0 °F 28.4 °F 81% 30.23 in 10.0 mi WSW 8.1 mph - N/A   Clear
8:15 AM 35.6 °F 28.6 °F 28.4 °F 75% 30.24 in 10.0 mi West 9.2 mph - N/A   Clear
8:35 AM 37.4 °F 30.8 °F 28.4 °F 70% 30.25 in 10.0 mi West 9.2 mph - N/A   Clear
8:55 AM 37.4 °F 30.8 °F 28.4 °F 70% 30.26 in 10.0 mi West 9.2 mph - N/A   Partly Cloudy
9:15 AM 37.4 °F 30.3 °F 28.4 °F 70% 30.26 in 10.0 mi West 10.4 mph 18.4 mph N/A   Partly Cloudy
9:35 AM 37.4 °F 29.8 °F 26.6 °F 65% 30.26 in 10.0 mi WNW 11.5 mph 17.3 mph N/A   Mostly Cloudy
9:55 AM 37.4 °F 31.4 °F 26.6 °F 65% 30.27 in 10.0 mi WNW 8.1 mph 18.4 mph N/A   Mostly Cloudy
10:15 AM 39.2 °F 33.0 °F 26.6 °F 61% 30.28 in 10.0 mi West 9.2 mph 17.3 mph N/A   Mostly Cloudy
10:35 AM 39.2 °F 31.2 °F 26.6 °F 61% 30.28 in 10.0 mi West 13.8 mph 18.4 mph N/A   Mostly Cloudy
10:55 AM 41.0 °F 33.9 °F 28.4 °F 61% 30.29 in 10.0 mi WSW 12.7 mph - N/A   Overcast
11:15 AM 41.0 °F 33.5 °F 26.6 °F 57% 30.29 in 10.0 mi WSW 13.8 mph 18.4 mph N/A   Mostly Cloudy
11:35 AM 41.0 °F 34.7 °F 24.8 °F 53% 30.29 in 10.0 mi WSW 10.4 mph 17.3 mph N/A   Overcast
11:55 AM 41.0 °F 35.2 °F 24.8 °F 53% 30.28 in 10.0 mi NW 9.2 mph - N/A   Overcast
12:15 PM 39.2 °F 33.6 °F 23.0 °F 52% 30.28 in 10.0 mi West 8.1 mph 16.1 mph N/A   Mostly Cloudy
12:35 PM 39.2 °F 32.5 °F 24.8 °F 56% 30.27 in 10.0 mi West 10.4 mph 17.3 mph N/A   Mostly Cloudy
12:55 PM 42.8 °F 35.4 °F 26.6 °F 53% 30.26 in 10.0 mi WSW 15.0 mph 18.4 mph N/A   Mostly Cloudy
1:15 PM 42.8 °F 37.0 °F 23.0 °F 46% 30.26 in 10.0 mi West 10.4 mph 17.3 mph N/A   Overcast
1:35 PM 42.8 °F 37.5 °F 24.8 °F 49% 30.26 in 10.0 mi West 9.2 mph - N/A   Mostly Cloudy
1:55 PM 44.6 °F 39.2 °F 24.8 °F 46% 30.26 in 10.0 mi West 10.4 mph 19.6 mph N/A   Mostly Cloudy
2:15 PM 42.8 °F 37.5 °F 24.8 °F 49% 30.26 in 10.0 mi West 9.2 mph 17.3 mph N/A   Overcast
2:35 PM 42.8 °F 37.0 °F 23.0 °F 46% 30.26 in 10.0 mi West 10.4 mph - N/A   Overcast
2:55 PM 42.8 °F 37.0 °F 23.0 °F 46% 30.27 in 10.0 mi West 10.4 mph - N/A   Mostly Cloudy
3:15 PM 42.8 °F 39.3 °F 23.0 °F 46% 30.27 in 10.0 mi West 5.8 mph - N/A   Mostly Cloudy
3:35 PM 41.0 °F 37.1 °F 23.0 °F 49% 30.27 in 10.0 mi West 5.8 mph - N/A   Scattered Clouds
3:55 PM 42.8 °F 38.0 °F 23.0 °F 46% 30.26 in 10.0 mi WNW 8.1 mph - N/A   Clear
4:15 PM 42.8 °F 37.5 °F 23.0 °F 46% 30.26 in 10.0 mi West 9.2 mph - N/A   Clear
4:35 PM 42.8 °F 41.1 °F 21.2 °F 42% 30.27 in 10.0 mi West 3.5 mph - N/A   Partly Cloudy
4:55 PM 39.2 °F 35.0 °F 21.2 °F 49% 30.26 in 10.0 mi West 5.8 mph - N/A   Scattered Clouds
5:15 PM 39.2 °F - 23.0 °F 52% 30.26 in 10.0 mi Calm Calm - N/A   Clear
5:35 PM 35.6 °F 32.8 °F 26.6 °F 70% 30.27 in 10.0 mi West 3.5 mph - N/A   Scattered Clouds
5:55 PM 35.6 °F - 26.6 °F 70% 30.27 in 10.0 mi Calm Calm - N/A   Mostly Cloudy
6:15 PM 33.8 °F - 26.6 °F 75% 30.28 in 10.0 mi Calm Calm - N/A   Mostly Cloudy
6:35 PM 33.8 °F - 26.6 °F 75% 30.28 in 10.0 mi Calm Calm - N/A   Scattered Clouds
6:55 PM 30.2 °F - 24.8 °F 80% 30.28 in 10.0 mi Calm Calm - N/A   Clear
7:15 PM 30.2 °F - 24.8 °F 80% 30.28 in 10.0 mi Calm Calm - N/A   Clear
7:35 PM 30.2 °F - 24.8 °F 80% 30.28 in 10.0 mi Calm Calm - N/A   Clear
7:55 PM 28.4 °F - 24.8 °F 86% 30.28 in 10.0 mi Calm Calm - N/A   Clear
8:15 PM 28.4 °F - 24.8 °F 86% 30.29 in 10.0 mi Calm Calm - N/A   Clear
8:35 PM 28.4 °F - 24.8 °F 86% 30.29 in 10.0 mi Calm Calm - N/A   Clear
8:55 PM 26.6 °F - 21.2 °F 80% 30.28 in 10.0 mi Calm Calm - N/A   Clear
9:15 PM 26.6 °F - 24.8 °F 93% 30.28 in 10.0 mi Calm Calm - N/A   Clear
9:35 PM 26.6 °F - 23.0 °F 86% 30.29 in 10.0 mi Calm Calm - N/A   Clear
9:55 PM 26.6 °F - 24.8 °F 93% 30.29 in 10.0 mi Calm Calm - N/A   Clear
10:15 PM 26.6 °F - 21.2 °F 80% 30.29 in 10.0 mi Calm Calm - N/A   Clear
10:35 PM 24.8 °F - 21.2 °F 86% 30.28 in 10.0 mi Calm Calm - N/A   Clear
10:55 PM 24.8 °F - 24.8 °F 100% 30.28 in 10.0 mi Calm Calm - N/A   Clear
11:15 PM 26.6 °F - 24.8 °F 93% 30.28 in 10.0 mi Calm Calm - N/A   Clear
11:35 PM 24.8 °F - 23.0 °F 93% 30.28 in 10.0 mi Calm Calm - N/A   Clear
11:55 PM 24.8 °F - 21.2 °F 86% 30.28 in 10.0 mi Calm Calm - N/A   Clear